Provo, UT

7:00 PM MDT on April 30, 2017 (GMT -0600)
Provo Municipal

Weather History for KPVU - October, 2013

Change the Weather History Date:

Monday, October 28, 2013

  Actual Average Record
Temperature  
Mean Temperature 53 °F -  
Max Temperature 64 °F 52 °F 78 °F (1990)
Min Temperature 42 °F 31 °F 24 °F (2011)
Degree Days  
Heating Degree Days 12    
Growing Degree Days 3 (Base 50)    
Moisture  
Dew Point 34 °F    
Average Humidity 51    
Maximum Humidity 81    
Minimum Humidity 24    
Precipitation  
Precipitation 0.01 in - - ()
Sea Level Pressure  
Sea Level Pressure 29.64 in    
Wind  
Wind Speed 16 mph (SE)    
Max Wind Speed 31 mph    
Max Gust Speed 40 mph    
Visibility 11 miles    
Events Rain    
Averages and records for this station are not official NWS values.
T = Trace of Precipitation, MM = Missing Value Source: NWS Daily Summary

Daily Weather History Graph

Daily Weather History Graph

Search for Another Location

Airport or City:

Trip Planner

Search our weather history database for the weather conditions in past years. The results will help you decide how hot, cold, wet, or windy it might be!

Date:

Astronomy

Oct. 28, 2013 Rise Set
Actual Time 7:52 AM MDT 6:28 PM MDT
Civil Twilight 7:24 AM MDT 6:56 PM MDT
Nautical Twilight 6:52 AM MDT 7:28 PM MDT
Astronomical Twilight 6:20 AM MDT 7:59 PM MDT
Moon 1:48 AM MDT (10/28) 3:12 PM MDT (10/28)
Length of Visible Light 11h 32m
Length of Day
10h 36m
Waning Crescent, 33% of the Moon is Illuminated
Oct 28
Waning Crescent
Nov 3
New
Nov 9
First Quarter
Nov 17
Full
Nov 25
Last Quarter

Hourly Weather History & Observations

Time (MDT) Temp. Windchill Dew Point Humidity Pressure Visibility Wind Dir Wind Speed Gust Speed Precip Events Conditions
12:15 AM 59.0 °F - 35.6 °F 42% 29.66 in 10.0 mi SE 17.3 mph - N/A   Overcast
12:35 AM 60.8 °F - 33.8 °F 36% 29.65 in 10.0 mi SE 16.1 mph - N/A   Overcast
12:55 AM 59.0 °F - 33.8 °F 39% 29.65 in 10.0 mi SE 16.1 mph - N/A   Overcast
1:15 AM 55.4 °F - 35.6 °F 47% 29.65 in 10.0 mi SE 17.3 mph - N/A   Mostly Cloudy
1:35 AM 57.2 °F - 33.8 °F 41% 29.64 in 10.0 mi ESE 18.4 mph - N/A   Partly Cloudy
1:55 AM 57.2 °F - 33.8 °F 41% 29.63 in 10.0 mi SE 15.0 mph - N/A   Clear
2:15 AM 57.2 °F - 35.6 °F 44% 29.63 in 10.0 mi SE 17.3 mph - N/A   Partly Cloudy
2:35 AM 55.4 °F - 35.6 °F 47% 29.62 in 10.0 mi SSE 15.0 mph - N/A   Partly Cloudy
2:55 AM 55.4 °F - 35.6 °F 47% 29.62 in 10.0 mi SE 17.3 mph 20.7 mph N/A   Clear
3:15 AM 55.4 °F - 35.6 °F 47% 29.62 in 10.0 mi SE 15.0 mph - N/A   Scattered Clouds
3:35 AM 55.4 °F - 35.6 °F 47% 29.61 in 10.0 mi SE 16.1 mph - N/A   Scattered Clouds
3:55 AM 55.4 °F - 35.6 °F 47% 29.60 in 10.0 mi SE 17.3 mph - N/A   Partly Cloudy
4:15 AM 55.4 °F - 33.8 °F 44% 29.58 in 10.0 mi SE 18.4 mph - N/A   Clear
4:35 AM 55.4 °F - 33.8 °F 44% 29.58 in 10.0 mi SE 18.4 mph - N/A   Clear
4:55 AM 55.4 °F - 33.8 °F 44% 29.57 in 10.0 mi SE 19.6 mph - N/A   Clear
5:15 AM 55.4 °F - 33.8 °F 44% 29.57 in 10.0 mi SE 19.6 mph - N/A   Clear
5:35 AM 53.6 °F - 33.8 °F 47% 29.56 in 10.0 mi SE 19.6 mph - N/A   Clear
5:55 AM 53.6 °F - 33.8 °F 47% 29.56 in 10.0 mi SE 19.6 mph - N/A   Clear
6:50 AM 55.4 °F - 32.0 °F 41% 29.55 in 15.0 mi ESE 20.7 mph 25.3 mph N/A   Partly Cloudy
7:50 AM 57.2 °F - 30.2 °F 36% 29.53 in 15.0 mi ESE 23.0 mph 28.8 mph N/A   Mostly Cloudy
8:50 AM 57.2 °F - 30.2 °F 36% 29.54 in 15.0 mi ESE 17.3 mph 23.0 mph N/A   Overcast
9:50 AM 59.0 °F - 28.4 °F 31% 29.54 in 15.0 mi ESE 23.0 mph 26.5 mph N/A   Overcast
10:59 AM 64.4 °F - 30.2 °F 28% 29.54 in 15.0 mi ESE 17.3 mph 25.3 mph N/A   Overcast
11:50 AM 64.4 °F - 28.4 °F 26% 29.53 in 15.0 mi SE 17.3 mph 25.3 mph N/A   Overcast
12:50 PM 64.4 °F - 26.6 °F 24% 29.52 in 15.0 mi SSE 19.6 mph 26.5 mph N/A   Overcast
1:50 PM 62.6 °F - 30.2 °F 30% 29.50 in 15.0 mi SE 15.0 mph 21.9 mph N/A   Overcast
2:53 PM 59.0 °F - 33.8 °F 39% 29.50 in 10.0 mi SW 21.9 mph - N/A   Overcast
3:56 PM 57.2 °F - 30.2 °F 36% 29.56 in 3.0 mi SSW 31.1 mph 40.3 mph N/A   Widespread Dust
4:55 PM 55.4 °F - 30.2 °F 38% 29.61 in 7.0 mi SSW 27.6 mph 36.8 mph N/A   Mostly Cloudy
6:54 PM 48.2 °F - 35.6 °F 62% 29.68 in 15.0 mi SSE 15.0 mph - N/A   Mostly Cloudy
6:56 PM 48.2 °F - 35.6 °F 62% 29.71 in 10.0 mi SE 16.1 mph 24.2 mph N/A   Mostly Cloudy
7:51 PM 46.4 °F 39.8 °F 35.6 °F 66% 29.73 in 10.0 mi SE 16.1 mph 26.5 mph N/A Rain Light Rain
8:55 PM 42.8 °F 37.0 °F 37.4 °F 81% 29.75 in 8.0 mi East 10.4 mph - N/A   Overcast
9:15 PM 42.8 °F 38.0 °F 37.4 °F 81% 29.76 in 10.0 mi ENE 8.1 mph - N/A   Overcast
9:35 PM 42.8 °F 39.3 °F 37.4 °F 81% 29.75 in 10.0 mi NE 5.8 mph - N/A   Overcast
9:55 PM 42.8 °F - 37.4 °F 81% 29.75 in 10.0 mi Calm Calm - N/A   Overcast
10:15 PM 42.8 °F - 37.4 °F 81% 29.77 in 10.0 mi Calm Calm - N/A   Overcast
10:35 PM 42.8 °F 39.3 °F 37.4 °F 81% 29.78 in 10.0 mi ENE 5.8 mph - N/A   Overcast
10:55 PM 42.8 °F - 37.4 °F 81% 29.77 in 10.0 mi Calm Calm - N/A   Mostly Cloudy
11:15 PM 42.8 °F - 37.4 °F 81% 29.76 in 10.0 mi Calm Calm - N/A   Mostly Cloudy
11:35 PM 42.8 °F 41.1 °F 35.6 °F 76% 29.78 in 10.0 mi SSW 3.5 mph - N/A   Mostly Cloudy
11:55 PM 42.8 °F 38.6 °F 37.4 °F 81% 29.77 in 10.0 mi NE 6.9 mph - N/A   Scattered Clouds